When you browse on this site, cookies collect data to enhance your experience and personalize the content and advertising you see.
Visit our Privacy Policy to learn more. By continuing to use the site, you agree to this use of cookies and data.
  • In Portugal
  • List of Countries
  • For 7 days
  • Water Temperature
  • Satellite Maps
  • Weather Map
  • Weather Widgets
  • user-avatar
    Login

    Hourly Weather Naftalan

    Today, 19 July, Friday

    Time Temperature Precipitation Wind Pressure Humidity
    00:00 +26°C° 0 mm 1 mps 756 mmHg 76%
    01:00 +26°C° 0 mm 1 mps 756 mmHg 75%
    02:00 +26°C° 0 mm 2 mps 756 mmHg 75%
    03:00 +26°C° 0 mm 3 mps 756 mmHg 75%
    04:00 +27°C° 0 mm 3 mps 757 mmHg 71%
    05:00 +27°C° 0 mm 3 mps 757 mmHg 66%
    06:00 +28°C° 0 mm 3 mps 758 mmHg 62%
    07:00 +30°C° 0 mm 3 mps 758 mmHg 56%
    08:00 +32°C° 0 mm 4 mps 759 mmHg 50%
    09:00 +33°C° 0 mm 4 mps 759 mmHg 45%
    10:00 +34°C° 0 mm 4 mps 759 mmHg 43%
    11:00 +34°C° 0 mm 5 mps 759 mmHg 42%
    12:00 +35°C° 0 mm 5 mps 759 mmHg 41%
    13:00 +35°C° 0 mm 5 mps 758 mmHg 42%
    14:00 +35°C° 0 mm 4 mps 758 mmHg 42%
    15:00 +34°C° 0 mm 4 mps 758 mmHg 43%
    16:00 +34°C° 0 mm 4 mps 758 mmHg 46%
    17:00 +33°C° 0 mm 3 mps 758 mmHg 49%
    18:00 +31°C° 0 mm 3 mps 758 mmHg 52%
    19:00 +30°C° 0 mm 3 mps 759 mmHg 56%
    20:00 +29°C° 0 mm 3 mps 759 mmHg 60%
    21:00 +28°C° 0 mm 3 mps 760 mmHg 63%
    22:00 +28°C° 0 mm 3 mps 760 mmHg 61%
    23:00 +28°C° 0 mm 2 mps 760 mmHg 60%

    Tomorrow, 20 July, Saturday

    Time Temperature Precipitation Wind Pressure Humidity
    00:00 +28°C° 0 mm 2 mps 760 mmHg 58%
    01:00 +28°C° 0 mm 2 mps 760 mmHg 57%
    02:00 +27°C° 0 mm 2 mps 760 mmHg 57%
    03:00 +27°C° 0 mm 2 mps 760 mmHg 57%
    04:00 +28°C° 0 mm 2 mps 760 mmHg 54%
    05:00 +29°C° 0 mm 2 mps 761 mmHg 51%
    06:00 +29°C° 0 mm 2 mps 761 mmHg 48%
    07:00 +31°C° 0 mm 2 mps 761 mmHg 44%
    08:00 +34°C° 0 mm 2 mps 762 mmHg 40%
    09:00 +35°C° 0 mm 2 mps 762 mmHg 35%
    10:00 +36°C° 0 mm 3 mps 762 mmHg 34%
    11:00 +36°C° 0 mm 3 mps 762 mmHg 34%
    12:00 +37°C° 0 mm 4 mps 762 mmHg 33%
    13:00 +37°C° 0 mm 5 mps 762 mmHg 34%
    14:00 +36°C° 0 mm 5 mps 761 mmHg 36%
    15:00 +36°C° 0 mm 6 mps 761 mmHg 38%
    16:00 +35°C° 0 mm 5 mps 761 mmHg 40%
    17:00 +34°C° 0 mm 5 mps 762 mmHg 43%
    18:00 +33°C° 0 mm 4 mps 762 mmHg 45%
    19:00 +31°C° 0 mm 3 mps 762 mmHg 49%
    20:00 +30°C° 0 mm 3 mps 763 mmHg 53%
    21:00 +29°C° 0 mm 2 mps 763 mmHg 57%
    22:00 +29°C° 0 mm 2 mps 763 mmHg 57%
    23:00 +28°C° 0 mm 2 mps 763 mmHg 58%

    Day after tomorrow, 21 July, Sunday

    Time Temperature Precipitation Wind Pressure Humidity
    00:00 +28°C° 0 mm 1 mps 764 mmHg 59%
    01:00 +28°C° 0 mm 1 mps 763 mmHg 59%
    02:00 +27°C° 0 mm 2 mps 763 mmHg 59%
    03:00 +27°C° 0 mm 2 mps 763 mmHg 59%
    04:00 +28°C° 0 mm 2 mps 763 mmHg 57%
    05:00 +29°C° 0 mm 2 mps 763 mmHg 54%
    06:00 +29°C° 0 mm 2 mps 764 mmHg 52%
    07:00 +31°C° 0 mm 3 mps 764 mmHg 47%
    08:00 +34°C° 0 mm 3 mps 763 mmHg 42%
    09:00 +35°C° 0 mm 4 mps 763 mmHg 37%
    10:00 +36°C° 0 mm 5 mps 763 mmHg 36%
    11:00 +36°C° 0 mm 5 mps 762 mmHg 35%
    12:00 +38°C° 0 mm 6 mps 762 mmHg 35%
    13:00 +36°C° 0 mm 5 mps 761 mmHg 36%
    14:00 +36°C° 0 mm 5 mps 761 mmHg 38%
    15:00 +36°C° 0 mm 5 mps 760 mmHg 40%
    16:00 +35°C° 0 mm 4 mps 760 mmHg 43%
    17:00 +34°C° 0 mm 4 mps 760 mmHg 47%
    18:00 +33°C° 0 mm 4 mps 760 mmHg 50%
    19:00 +30°C° 0 mm 3 mps 760 mmHg 57%
    20:00 +29°C° 0 mm 2 mps 761 mmHg 64%
    21:00 +27°C° 0 mm 1 mps 761 mmHg 71%
    22:00 +27°C° 0 mm 1 mps 761 mmHg 71%
    23:00 +27°C° 0 mm 2 mps 761 mmHg 71%

    22 July, Monday

    Time Temperature Precipitation Wind Pressure Humidity
    00:00 +27°C° 0 mm 2 mps 760 mmHg 71%
    01:00 +27°C° 0 mm 2 mps 760 mmHg 71%
    02:00 +26°C° 0 mm 2 mps 760 mmHg 71%
    03:00 +26°C° 0 mm 2 mps 760 mmHg 71%
    04:00 +27°C° 0 mm 2 mps 760 mmHg 68%
    05:00 +27°C° 0 mm 2 mps 760 mmHg 64%
    06:00 +28°C° 0 mm 2 mps 760 mmHg 61%
    07:00 +30°C° 0 mm 3 mps 760 mmHg 54%
    08:00 +33°C° 0 mm 3 mps 759 mmHg 47%
    09:00 +34°C° 0 mm 4 mps 759 mmHg 40%
    10:00 +35°C° 0 mm 4 mps 759 mmHg 40%
    11:00 +35°C° 0 mm 5 mps 759 mmHg 40%
    12:00 +36°C° 0 mm 5 mps 758 mmHg 40%
    13:00 +36°C° 0 mm 5 mps 758 mmHg 42%
    14:00 +35°C° 0 mm 5 mps 758 mmHg 44%
    15:00 +35°C° 0 mm 4 mps 757 mmHg 46%
    16:00 +34°C° 0 mm 4 mps 757 mmHg 51%
    17:00 +33°C° 0 mm 4 mps 757 mmHg 55%
    18:00 +31°C° 0 mm 3 mps 757 mmHg 59%
    19:00 +30°C° 0 mm 3 mps 757 mmHg 66%
    20:00 +28°C° 0 mm 3 mps 758 mmHg 72%
    21:00 +27°C° 0 mm 3 mps 758 mmHg 78%
    22:00 +27°C° 0 mm 4 mps 758 mmHg 75%
    23:00 +28°C° 0 mm 4 mps 758 mmHg 73%

    23 July, Tuesday

    Time Temperature Precipitation Wind Pressure Humidity
    00:00 +28°C° 0 mm 4 mps 758 mmHg 70%
    01:00 +28°C° 0 mm 4 mps 758 mmHg 69%
    02:00 +28°C° 0 mm 4 mps 758 mmHg 68%
    03:00 +28°C° 0 mm 4 mps 758 mmHg 66%
    04:00 +28°C° 0 mm 4 mps 758 mmHg 64%
    05:00 +29°C° 0 mm 4 mps 758 mmHg 62%
    06:00 +29°C° 0 mm 4 mps 759 mmHg 59%
    07:00 +32°C° 0 mm 4 mps 759 mmHg 53%
    08:00 +33°C° 0 mm 4 mps 759 mmHg 47%
    09:00 +34°C° 0 mm 4 mps 759 mmHg 41%
    10:00 +35°C° 0 mm 5 mps 759 mmHg 40%
    11:00 +36°C° 0 mm 6 mps 758 mmHg 38%
    12:00 +36°C° 0 mm 6 mps 758 mmHg 37%
    13:00 +36°C° 0 mm 7 mps 757 mmHg 39%
    14:00 +35°C° 0 mm 7 mps 757 mmHg 41%
    15:00 +35°C° 0 mm 7 mps 756 mmHg 43%
    16:00 +34°C° 0 mm 7 mps 756 mmHg 47%
    17:00 +33°C° 0 mm 6 mps 756 mmHg 50%
    18:00 +32°C° 0 mm 6 mps 756 mmHg 54%
    19:00 +30°C° 0 mm 4 mps 756 mmHg 58%
    20:00 +29°C° 0 mm 3 mps 756 mmHg 63%
    21:00 +28°C° 0 mm 2 mps 757 mmHg 67%
    22:00 +28°C° 0 mm 2 mps 756 mmHg 69%
    23:00 +27°C° 0 mm 3 mps 756 mmHg 70%

    24 July, Wednesday

    Time Temperature Precipitation Wind Pressure Humidity
    00:00 +27°C° 0 mm 3 mps 756 mmHg 71%
    01:00 +27°C° 0 mm 2 mps 756 mmHg 71%
    02:00 +27°C° 0 mm 2 mps 756 mmHg 70%
    03:00 +26°C° 0 mm 2 mps 756 mmHg 70%
    04:00 +27°C° 0 mm 2 mps 756 mmHg 66%
    05:00 +27°C° 0 mm 2 mps 756 mmHg 62%
    06:00 +28°C° 0 mm 2 mps 756 mmHg 59%
    07:00 +30°C° 0 mm 2 mps 756 mmHg 53%
    08:00 +31°C° 0 mm 2 mps 756 mmHg 47%
    09:00 +33°C° 0 mm 1 mps 756 mmHg 42%
    10:00 +35°C° 0 mm 2 mps 756 mmHg 40%
    11:00 +36°C° 0 mm 3 mps 755 mmHg 38%
    12:00 +37°C° 0 mm 4 mps 755 mmHg 37%
    13:00 +36°C° 0 mm 5 mps 755 mmHg 39%
    14:00 +36°C° 0 mm 5 mps 754 mmHg 41%
    15:00 +35°C° 0 mm 6 mps 754 mmHg 42%
    16:00 +34°C° 0 mm 5 mps 754 mmHg 45%
    17:00 +33°C° 0 mm 5 mps 754 mmHg 48%
    18:00 +32°C° 0 mm 5 mps 754 mmHg 51%
    19:00 +30°C° 0 mm 4 mps 755 mmHg 56%
    20:00 +29°C° 0 mm 4 mps 755 mmHg 61%
    21:00 +28°C° 0 mm 3 mps 755 mmHg 66%
    22:00 +28°C° 0 mm 2 mps 755 mmHg 66%
    23:00 +27°C° 0 mm 1 mps 755 mmHg 67%
    Show more